Time,TemperatureF,DewpointF,PressureIn,WindDirection,WindDirectionDegrees,WindSpeedMPH,WindSpeedGustMPH,Humidity,HourlyPrecipIn,Conditions,Clouds,dailyrainin,SolarRadiationWatts/m^2,SoftwareType,DateUTC
2013-07-01 00:04:00,74.1,66.1,30.06,ENE,68,2.6,3.8,76,0.00,SCT,BKN,0.00,0.0,WeatherDisplay:10.37,2013-07-01 10:04:00,
2013-07-01 00:09:00,74.1,65.3,30.06,East,90,4.9,5.8,74,0.00,SCT,BKN,0.00,0.0,WeatherDisplay:10.37,2013-07-01 10:09:00,
2013-07-01 00:14:00,74.1,65.3,30.06,NE,45,2.9,5.8,74,0.00,SCT,BKN,0.00,0.0,WeatherDisplay:10.37,2013-07-01 10:14:00,
2013-07-01 00:19:00,74.1,65.3,30.06,NE,45,2.9,5.8,74,0.00,SCT,BKN,0.00,0.0,WeatherDisplay:10.37,2013-07-01 10:19:00,
2013-07-01 06:22:00,73.6,65.9,30.06,East,90,3.6,4.9,77,0.00,SCT,BKN,0.00,0.0,WeatherDisplay:10.37,2013-07-01 16:22:00,
2013-07-01 06:27:00,73.6,65.9,30.06,ENE,68,1.6,3.5,77,0.00,SCT,BKN,0.00,0.0,WeatherDisplay:10.37,2013-07-01 16:27:00,
2013-07-01 06:32:00,73.6,65.9,30.06,NNE,22,2.6,3.5,77,0.00,SCT,BKN,0.00,0.0,WeatherDisplay:10.37,2013-07-01 16:32:00,
2013-07-01 06:37:00,73.8,65.7,30.06,ESE,112,1.2,2.6,76,0.00,SCT,BKN,0.00,0.0,WeatherDisplay:10.37,2013-07-01 16:37:00,
2013-07-01 06:42:00,73.8,65.3,30.06,East,90,1.2,3.5,75,0.00,SCT,BKN,0.00,0.0,WeatherDisplay:10.37,2013-07-01 16:42:00,
2013-07-01 06:47:00,73.9,65.9,30.06,East,90,0.0,2.3,76,0.00,SCT,BKN,0.00,0.0,WeatherDisplay:10.37,2013-07-01 16:47:00,
2013-07-01 06:52:00,73.9,65.9,30.06,WSW,248,2.9,6.2,76,0.00,SCT,BKN,0.00,0.0,WeatherDisplay:10.37,2013-07-01 16:52:00,
2013-07-01 06:57:00,74.3,65.9,30.06,NNE,22,2.0,3.5,75,0.00,SCT,BKN,0.00,0.0,WeatherDisplay:10.37,2013-07-01 16:57:00,
2013-07-01 07:02:00,74.3,65.9,30.06,ESE,112,1.6,3.3,75,0.00,SCT,BKN,0.00,0.0,WeatherDisplay:10.37,2013-07-01 17:02:00,
2013-07-01 07:07:00,74.3,65.9,30.06,ENE,68,2.4,3.5,75,0.00,SCT,BKN,0.00,0.0,WeatherDisplay:10.37,2013-07-01 17:07:00,
2013-07-01 07:12:00,74.3,65.9,30.06,East,90,1.6,2.3,75,0.00,SCT,BKN,0.00,0.0,WeatherDisplay:10.37,2013-07-01 17:12:00,
2013-07-01 07:17:00,74.5,66.0,30.06,ESE,112,1.4,3.5,75,0.00,SCT,BKN,0.00,0.0,WeatherDisplay:10.37,2013-07-01 17:17:00,
2013-07-01 07:22:00,74.7,66.2,30.06,ENE,68,2.4,3.5,75,0.00,SCT,BKN,0.00,0.0,WeatherDisplay:10.37,2013-07-01 17:22:00,
2013-07-01 07:27:00,74.5,65.3,30.03,East,90,4.0,4.0,73,0.00,SCT,BKN,0.00,0.0,WeatherDisplay:10.37,2013-07-01 17:27:00,
2013-07-01 07:32:00,74.8,66.0,30.03,East,90,0.0,1.2,74,0.00,SCT,BKN,0.00,0.0,WeatherDisplay:10.37,2013-07-01 17:32:00,
2013-07-01 07:37:00,75.0,66.6,30.03,SSE,158,2.0,2.3,75,0.00,SCT,BKN,0.00,0.0,WeatherDisplay:10.37,2013-07-01 17:37:00,
2013-07-01 07:42:00,75.2,66.3,30.06,East,90,0.9,2.3,74,0.00,SCT,BKN,0.00,0.0,WeatherDisplay:10.37,2013-07-01 17:42:00,
2013-07-01 07:47:00,75.0,66.6,30.06,East,90,3.8,4.6,75,0.00,SCT,BKN,0.00,0.0,WeatherDisplay:10.37,2013-07-01 17:47:00,
2013-07-01 07:52:00,75.2,66.3,30.06,NW,315,0.0,1.2,74,0.00,SCT,BKN,0.00,0.0,WeatherDisplay:10.37,2013-07-01 17:52:00,
2013-07-01 07:57:00,75.4,65.7,30.06,NNW,338,1.2,3.5,72,0.00,SCT,BKN,0.00,0.0,WeatherDisplay:10.37,2013-07-01 17:57:00,
2013-07-01 08:02:00,75.7,66.5,30.06,East,90,0.9,2.3,73,0.00,SCT,BKN,0.00,0.0,WeatherDisplay:10.37,2013-07-01 18:02:00,
2013-07-01 08:07:00,75.7,66.5,30.06,ENE,68,1.6,2.3,73,0.00,SCT,BKN,0.00,0.0,WeatherDisplay:10.37,2013-07-01 18:07:00,
2013-07-01 08:12:00,75.7,66.9,30.06,East,90,0.0,0.0,74,0.00,SCT,BKN,0.00,0.0,WeatherDisplay:10.37,2013-07-01 18:12:00,
2013-07-01 08:17:00,75.2,66.7,30.06,ESE,112,3.1,5.8,75,0.00,SCT,BKN,0.00,0.0,WeatherDisplay:10.37,2013-07-01 18:17:00,
2013-07-01 08:22:00,74.8,66.8,30.06,NE,45,3.8,3.8,76,0.00,SCT,BKN,0.00,0.0,WeatherDisplay:10.37,2013-07-01 18:22:00,
2013-07-01 08:27:00,75.4,66.5,30.06,ESE,112,2.4,2.4,74,0.00,SCT,BKN,0.00,0.0,WeatherDisplay:10.37,2013-07-01 18:27:00,
2013-07-01 08:32:00,75.4,66.9,30.06,West,270,2.9,3.5,75,0.00,SCT,BKN,0.00,0.0,WeatherDisplay:10.37,2013-07-01 18:32:00,
2013-07-01 08:37:00,75.4,66.9,30.06,East,90,1.4,4.6,75,0.00,SCT,BKN,0.00,0.0,WeatherDisplay:10.37,2013-07-01 18:37:00,
2013-07-01 08:42:00,75.2,67.1,30.06,East,90,1.6,2.3,76,0.00,SCT,BKN,0.00,0.0,WeatherDisplay:10.37,2013-07-01 18:42:00,
2013-07-01 08:47:00,75.4,66.5,30.06,SW,225,3.1,4.6,74,0.00,SCT,BKN,0.00,0.0,WeatherDisplay:10.37,2013-07-01 18:47:00,
2013-07-01 08:52:00,75.7,66.9,30.06,WSW,248,0.0,2.6,74,0.00,SCT,BKN,0.00,125.0,WeatherDisplay:10.37,2013-07-01 18:52:00,
2013-07-01 08:57:00,76.3,67.0,30.06,South,180,1.4,3.5,73,0.00,SCT,BKN,0.00,125.0,WeatherDisplay:10.37,2013-07-01 18:57:00,
2013-07-01 09:02:00,77.0,67.7,30.06,SW,225,1.4,3.3,73,0.00,SCT,BKN,0.00,125.0,WeatherDisplay:10.37,2013-07-01 19:02:00,
2013-07-01 09:07:00,76.8,67.1,30.06,ENE,68,1.6,2.3,72,0.00,SCT,BKN,0.00,0.0,WeatherDisplay:10.37,2013-07-01 19:07:00,
2013-07-01 09:12:00,76.8,66.3,30.06,SSW,202,2.2,3.5,70,0.00,SCT,BKN,0.00,0.0,WeatherDisplay:10.37,2013-07-01 19:12:00,
2013-07-01 09:17:00,76.8,66.3,30.06,SW,225,1.6,5.8,70,0.00,SCT,BKN,0.00,125.0,WeatherDisplay:10.37,2013-07-01 19:17:00,
2013-07-01 09:22:00,76.3,67.0,30.06,ENE,68,1.2,2.3,73,0.00,SCT,BKN,0.00,125.0,WeatherDisplay:10.37,2013-07-01 19:22:00,
2013-07-01 09:27:00,76.1,67.6,30.06,SE,135,0.0,1.2,75,0.00,SCT,BKN,0.00,125.0,WeatherDisplay:10.37,2013-07-01 19:27:00,
2013-07-01 09:32:00,75.7,68.0,30.06,NNW,338,1.2,3.8,77,0.00,SCT,BKN,0.00,125.0,WeatherDisplay:10.37,2013-07-01 19:32:00,
2013-07-01 09:37:00,75.4,67.3,30.06,East,90,2.6,2.6,76,0.00,SCT,BKN,0.00,125.0,WeatherDisplay:10.37,2013-07-01 19:37:00,
2013-07-01 09:42:00,75.2,67.9,30.06,ENE,68,1.6,4.6,78,0.00,SCT,BKN,0.00,125.0,WeatherDisplay:10.37,2013-07-01 19:42:00,
2013-07-01 09:47:00,75.0,68.4,30.06,NW,315,2.9,5.8,80,0.00,SCT,BKN,0.00,125.0,WeatherDisplay:10.37,2013-07-01 19:47:00,
2013-07-01 09:52:00,75.4,67.7,30.06,West,270,1.4,2.3,77,0.00,SCT,BKN,0.00,125.0,WeatherDisplay:10.37,2013-07-01 19:52:00,
2013-07-01 09:57:00,75.9,68.6,30.06,ESE,112,0.0,2.0,78,0.00,SCT,BKN,0.00,125.0,WeatherDisplay:10.37,2013-07-01 19:57:00,
2013-07-01 10:02:00,75.9,68.6,30.06,NNE,22,3.3,6.9,78,0.00,SCT,BKN,0.00,250.0,WeatherDisplay:10.37,2013-07-01 20:02:00,
2013-07-01 10:07:00,76.3,68.5,30.06,ENE,68,1.4,2.6,77,0.00,SCT,BKN,0.00,125.0,WeatherDisplay:10.37,2013-07-01 20:07:00,
2013-07-01 10:12:00,76.6,68.1,30.06,SE,135,0.9,2.3,75,0.00,SCT,BKN,0.00,125.0,WeatherDisplay:10.37,2013-07-01 20:12:00,
2013-07-01 10:17:00,76.8,67.9,30.06,NE,45,1.6,3.5,74,0.00,SCT,BKN,0.00,250.0,WeatherDisplay:10.37,2013-07-01 20:17:00,
2013-07-01 10:22:00,77.0,67.7,30.06,SW,225,0.9,2.9,73,0.00,SCT,BKN,0.00,125.0,WeatherDisplay:10.37,2013-07-01 20:22:00,
2013-07-01 10:27:00,77.9,68.9,30.06,NW,315,0.0,2.3,74,0.00,SCT,BKN,0.00,250.0,WeatherDisplay:10.37,2013-07-01 20:27:00,
2013-07-01 10:33:00,77.4,67.2,30.06,East,90,1.6,2.3,71,0.00,SCT,BKN,0.00,125.0,WeatherDisplay:10.37,2013-07-01 20:33:00,
2013-07-01 10:38:00,77.7,67.6,30.06,SE,135,2.0,2.3,71,0.00,SCT,BKN,0.00,250.0,WeatherDisplay:10.37,2013-07-01 20:38:00,
2013-07-01 10:43:00,77.7,66.7,30.06,ESE,112,2.9,3.5,69,0.00,SCT,BKN,0.00,250.0,WeatherDisplay:10.37,2013-07-01 20:43:00,
2013-07-01 10:48:00,78.1,66.7,30.06,NNW,338,2.9,3.5,68,0.00,SCT,BKN,0.00,250.0,WeatherDisplay:10.37,2013-07-01 20:48:00,
2013-07-01 10:53:00,78.4,67.0,30.06,NNW,338,1.2,1.4,68,0.00,SCT,BKN,0.00,125.0,WeatherDisplay:10.37,2013-07-01 20:53:00,
2013-07-01 10:58:00,79.2,67.7,30.06,NNW,338,1.2,2.3,68,0.00,SCT,BKN,0.00,250.0,WeatherDisplay:10.37,2013-07-01 20:58:00,
2013-07-01 11:03:00,79.2,67.7,30.06,SW,225,0.9,2.3,68,0.00,SCT,BKN,0.00,250.0,WeatherDisplay:10.37,2013-07-01 21:03:00,
2013-07-01 11:08:00,79.2,67.7,30.06,SW,225,0.9,2.3,68,0.00,SCT,BKN,0.00,250.0,WeatherDisplay:10.37,2013-07-01 21:08:00,
2013-07-01 19:30:00,73.8,66.1,30.03,East,79,2.0,3.0,77,0.00,SCT,BKN,0.00,0.0,WeatherDisplay:10.37,2013-07-02 05:30:00,
2013-07-01 19:35:00,73.8,66.1,30.03,East,94,1.0,4.0,77,0.00,SCT,BKN,0.00,0.0,WeatherDisplay:10.37,2013-07-02 05:35:00,
2013-07-01 19:40:00,73.8,66.1,30.03,East,94,2.0,3.0,77,0.00,SCT,BKN,0.00,0.0,WeatherDisplay:10.37,2013-07-02 05:40:00,
2013-07-01 19:45:00,73.8,66.1,30.03,East,93,5.0,6.0,77,0.00,SCT,BKN,0.00,0.0,WeatherDisplay:10.37,2013-07-02 05:45:00,
2013-07-01 19:56:00,73.8,66.1,30.03,East,88,2.0,3.0,77,0.00,SCT,BKN,0.00,0.0,WeatherDisplay:10.37,2013-07-02 05:56:00,
2013-07-01 20:01:00,73.8,65.7,30.03,NE,45,2.9,3.5,76,0.00,SCT,BKN,0.00,0.0,WeatherDisplay:10.37,2013-07-02 06:01:00,
2013-07-01 20:06:00,73.8,66.1,30.03,ENE,68,0.0,2.0,77,0.00,SCT,BKN,0.00,0.0,WeatherDisplay:10.37,2013-07-02 06:06:00,
2013-07-01 20:11:00,73.8,66.5,30.03,NE,45,2.2,4.9,78,0.00,SCT,BKN,0.00,0.0,WeatherDisplay:10.37,2013-07-02 06:11:00,
2013-07-01 20:16:00,73.6,66.3,30.03,East,90,0.0,1.2,78,0.00,SCT,BKN,0.00,0.0,WeatherDisplay:10.37,2013-07-02 06:16:00,
2013-07-01 20:21:00,73.6,66.3,30.03,NE,45,1.4,2.9,78,0.00,SCT,BKN,0.00,0.0,WeatherDisplay:10.37,2013-07-02 06:21:00,
2013-07-01 20:26:00,73.6,66.7,30.06,NE,45,0.9,2.6,79,0.00,SCT,BKN,0.00,0.0,WeatherDisplay:10.37,2013-07-02 06:26:00,
2013-07-01 20:31:00,73.4,66.1,30.06,East,90,0.9,1.4,78,0.00,SCT,BKN,0.00,0.0,WeatherDisplay:10.37,2013-07-02 06:31:00,
2013-07-01 20:36:00,73.4,66.1,30.06,ENE,68,1.2,4.6,78,0.00,SCT,BKN,0.00,0.0,WeatherDisplay:10.37,2013-07-02 06:36:00,
2013-07-01 20:41:00,73.6,65.2,30.03,East,90,3.8,4.6,75,0.00,SCT,BKN,0.00,0.0,WeatherDisplay:10.37,2013-07-02 06:41:00,
2013-07-01 20:46:00,73.8,65.3,30.03,NE,45,1.6,2.3,75,0.00,SCT,BKN,0.00,0.0,WeatherDisplay:10.37,2013-07-02 06:46:00,
2013-07-01 20:51:00,73.4,65.7,30.03,NE,45,1.6,2.3,77,0.00,SCT,BKN,0.00,0.0,WeatherDisplay:10.37,2013-07-02 06:51:00,
2013-07-01 20:56:00,73.2,65.9,30.03,SE,135,2.4,3.5,78,0.00,SCT,BKN,0.00,0.0,WeatherDisplay:10.37,2013-07-02 06:56:00,
2013-07-01 21:01:00,73.0,66.1,30.03,ENE,68,2.9,4.6,79,0.00,SCT,BKN,0.00,0.0,WeatherDisplay:10.37,2013-07-02 07:01:00,
2013-07-01 21:06:00,73.2,65.9,30.03,NNW,338,1.2,4.6,78,0.00,SCT,BKN,0.00,0.0,WeatherDisplay:10.37,2013-07-02 07:06:00,
2013-07-01 21:11:00,73.4,66.5,30.03,NE,45,2.9,3.8,79,0.00,SCT,BKN,0.00,0.0,WeatherDisplay:10.37,2013-07-02 07:11:00,
2013-07-01 21:16:00,73.4,66.5,30.03,SSW,202,2.6,3.5,79,0.00,SCT,BKN,0.00,0.0,WeatherDisplay:10.37,2013-07-02 07:16:00,
2013-07-01 21:21:00,73.0,66.5,30.03,SSE,158,2.0,3.5,80,0.00,SCT,BKN,0.00,0.0,WeatherDisplay:10.37,2013-07-02 07:21:00,
2013-07-01 21:26:00,72.7,66.9,30.03,ESE,112,1.2,2.4,82,0.00,SCT,BKN,0.00,0.0,WeatherDisplay:10.37,2013-07-02 07:26:00,
2013-07-01 21:31:00,72.3,66.9,30.03,ESE,112,4.0,5.8,83,0.00,SCT,BKN,0.00,0.0,WeatherDisplay:10.37,2013-07-02 07:31:00,
2013-07-01 21:36:00,72.1,67.4,30.03,South,180,2.9,4.6,85,0.00,SCT,BKN,0.00,0.0,WeatherDisplay:10.37,2013-07-02 07:36:00,
2013-07-01 21:41:00,72.1,67.0,30.06,SSW,202,0.0,2.2,84,0.00,SCT,BKN,0.00,0.0,WeatherDisplay:10.37,2013-07-02 07:41:00,
2013-07-01 21:46:00,72.1,67.7,30.06,SE,135,1.2,3.6,86,0.00,SCT,BKN,0.00,0.0,WeatherDisplay:10.37,2013-07-02 07:46:00,
2013-07-01 21:51:00,72.1,67.7,30.06,SE,135,2.6,5.9,86,0.00,SCT,BKN,0.00,0.0,WeatherDisplay:10.37,2013-07-02 07:51:00,
2013-07-01 21:56:00,72.1,67.7,30.06,East,90,0.9,3.6,86,0.00,SCT,BKN,0.00,0.0,WeatherDisplay:10.37,2013-07-02 07:56:00,
2013-07-01 22:01:00,72.1,67.4,30.06,SSW,202,2.9,3.5,85,0.00,SCT,BKN,0.00,0.0,WeatherDisplay:10.37,2013-07-02 08:01:00,
2013-07-01 22:06:00,72.1,66.7,30.06,NE,45,3.1,3.5,83,0.00,SCT,BKN,0.00,0.0,WeatherDisplay:10.37,2013-07-02 08:06:00,
2013-07-01 22:11:00,72.5,66.3,30.06,East,90,2.9,5.8,81,0.00,SCT,BKN,0.00,0.0,WeatherDisplay:10.37,2013-07-02 08:11:00,
2013-07-01 22:16:00,72.3,66.2,30.06,ENE,68,1.4,2.3,81,0.00,SCT,BKN,0.00,0.0,WeatherDisplay:10.37,2013-07-02 08:16:00,
2013-07-01 22:21:00,72.3,66.9,30.06,NE,45,4.0,5.8,83,0.00,SCT,BKN,0.00,0.0,WeatherDisplay:10.37,2013-07-02 08:21:00,
2013-07-01 22:26:00,72.3,66.2,30.06,ENE,68,2.2,3.5,81,0.00,SCT,BKN,0.00,0.0,WeatherDisplay:10.37,2013-07-02 08:26:00,
2013-07-01 22:31:00,72.5,66.3,30.06,SE,135,2.0,3.5,81,0.00,SCT,BKN,0.00,0.0,WeatherDisplay:10.37,2013-07-02 08:31:00,
2013-07-01 22:36:00,72.7,66.2,30.06,SE,135,2.9,3.5,80,0.00,SCT,BKN,0.00,0.0,WeatherDisplay:10.37,2013-07-02 08:36:00,
2013-07-01 22:41:00,72.9,66.3,30.06,ESE,112,2.6,4.6,80,0.00,SCT,BKN,0.00,0.0,WeatherDisplay:10.37,2013-07-02 08:41:00,
2013-07-01 22:46:00,72.9,66.3,30.06,East,90,1.4,2.3,80,0.00,SCT,BKN,0.00,0.0,WeatherDisplay:10.37,2013-07-02 08:46:00,
2013-07-01 22:51:00,72.5,66.3,30.06,South,180,2.2,2.3,81,0.00,SCT,BKN,0.00,0.0,WeatherDisplay:10.37,2013-07-02 08:51:00,
2013-07-01 22:56:00,72.1,66.7,30.06,East,90,2.4,4.6,83,0.00,SCT,BKN,0.00,0.0,WeatherDisplay:10.37,2013-07-02 08:56:00,
2013-07-01 23:01:00,72.7,66.5,30.06,North,0,2.9,4.6,81,0.00,SCT,BKN,0.00,0.0,WeatherDisplay:10.37,2013-07-02 09:01:00,
2013-07-01 23:06:00,73.0,66.5,30.06,NNW,338,4.3,6.2,80,0.00,SCT,BKN,0.00,0.0,WeatherDisplay:10.37,2013-07-02 09:06:00,
2013-07-01 23:11:00,73.4,66.1,30.03,ESE,112,2.9,4.6,78,0.00,SCT,BKN,0.00,0.0,WeatherDisplay:10.37,2013-07-02 09:11:00,
2013-07-01 23:16:00,73.4,66.5,30.03,ENE,68,1.4,2.6,79,0.00,SCT,BKN,0.00,0.0,WeatherDisplay:10.37,2013-07-02 09:16:00,
2013-07-01 23:21:00,73.4,65.7,30.03,South,180,2.9,9.2,77,0.00,SCT,BKN,0.00,0.0,WeatherDisplay:10.37,2013-07-02 09:21:00,
2013-07-01 23:26:00,73.6,65.2,30.03,South,180,2.4,5.8,75,0.00,SCT,BKN,0.00,0.0,WeatherDisplay:10.37,2013-07-02 09:26:00,
2013-07-01 23:31:00,73.8,65.7,30.03,East,90,2.0,2.9,76,0.00,SCT,BKN,0.00,0.0,WeatherDisplay:10.37,2013-07-02 09:31:00,
2013-07-01 23:36:00,73.6,65.5,30.03,SE,135,0.0,1.2,76,0.00,SCT,BKN,0.00,0.0,WeatherDisplay:10.37,2013-07-02 09:36:00,
2013-07-01 23:41:00,73.4,65.0,30.03,SSE,158,1.6,2.9,75,0.00,SCT,BKN,0.00,0.0,WeatherDisplay:10.37,2013-07-02 09:41:00,
2013-07-01 23:46:00,73.6,65.2,30.03,SSE,158,2.6,3.5,75,0.00,SCT,BKN,0.00,0.0,WeatherDisplay:10.37,2013-07-02 09:46:00,
2013-07-01 23:51:00,73.6,65.2,30.03,SSE,158,2.6,3.3,75,0.00,SCT,BKN,0.00,0.0,WeatherDisplay:10.37,2013-07-02 09:51:00,
2013-07-01 23:56:00,73.6,64.8,30.03,SE,135,0.9,3.5,74,0.00,SCT,BKN,0.00,0.0,WeatherDisplay:10.37,2013-07-02 09:56:00,